[[{"header":{"parameterUnit":"m.s-1","parameterCategory":1,"la1":30.2991,"la2":30.254,"lo1":-89.0895,"lo2":-89.0444,"dy":0.0017,"dx":0.0017,"nx":28,"ny":28,"refTime":"2023-08-22T21:00:00:Z","depth":0,"parameterNumber":2,"parameterNumberName":"U-component_of_WINDS"},"data":[0,0,0,0,0,0,0,0,0,0,0,0,0,0,0,0,0,0,0,0,0,0,0,0,0,0,0,0,0,0,0,0,0,0,0,0,0,0,0,0,0,0,0,0,0,0,0,0,0,0,0,0,0,0,0,0,0,0,-0.5044,-0.5042,0,-0.4898,-0.4896,-0.4895,-0.4872,-0.4873,-0.4874,-0.4875,-0.4726,-0.472,-0.4715,0,0,0,0,0,0,0,0,0,0,0,0,0,-0.5303,-0.5298,-0.5044,-0.5042,-0.504,-0.4898,-0.4896,-0.4894,-0.4871,-0.4873,-0.4874,-0.4876,-0.4727,-0.4721,-0.4715,0,0,0,0,0,0,0,0,0,0,0,0,0,-0.5177,-0.5297,-0.5044,-0.5012,-0.5007,-0.4899,-0.4896,-0.4894,-0.4871,-0.4873,-0.4875,-0.4877,-0.4729,-0.4722,-0.4714,-0.4627,0,0,-0.469,-0.4687,0,0,0,0,0,0,0,0,-0.5184,-0.5168,-0.5018,-0.5014,-0.5009,-0.4905,-0.4933,-0.4804,-0.4871,-0.4923,-0.4875,-0.4878,-0.4784,-0.4772,-0.474,-0.462,-0.4614,-0.469,-0.4685,-0.4681,-0.4679,0,0,0,0,0,0,0,-0.5193,-0.5174,-0.4986,-0.5016,-0.501,-0.5005,-0.4989,-0.4908,-0.4844,-0.4918,-0.4916,-0.4899,-0.4781,-0.4747,-0.4736,-0.4612,-0.469,-0.4683,-0.4678,-0.4675,-0.4415,-0.4413,0,0,0,0,0,0,-0.5208,-0.5181,-0.4991,-0.4982,-0.5103,-0.4998,-0.4981,-0.4936,-0.4845,-0.4833,-0.4898,-0.4899,-0.476,-0.4745,-0.4731,-0.4624,-0.4682,-0.4674,-0.467,-0.4418,-0.4415,-0.4412,0,0,0,0,0,0,-0.5213,-0.5191,-0.4997,-0.5081,-0.5056,-0.4992,-0.4942,-0.4932,-0.4898,-0.483,-0.4818,-0.4875,-0.4761,-0.4742,-0.4654,-0.4618,-0.4671,-0.4664,-0.442,-0.4417,-0.4414,-0.4409,0,0,0,0,0,0,-0.5221,-0.5193,-0.5159,-0.508,-0.5051,-0.4922,-0.494,-0.4928,-0.4885,-0.4885,-0.4805,-0.4794,-0.4761,-0.4665,-0.4646,-0.4609,-0.4658,-0.4423,-0.4419,-0.4415,-0.4412,-0.4406,-0.4401,0,0,0,0,0,-0.523,-0.5163,-0.5158,-0.5135,-0.5008,-0.492,-0.4903,-0.4867,-0.4882,-0.4848,-0.4804,-0.4796,-0.4626,-0.4657,-0.4634,-0.4594,-0.4425,-0.442,-0.4415,-0.4415,-0.4407,-0.4401,0,0,0,0,0,0,-0.5239,-0.5152,-0.5145,-0.5051,-0.4993,-0.4916,-0.4871,-0.486,-0.4796,-0.4799,-0.4757,-0.4739,-0.4653,-0.4615,-0.4651,-0.4506,-0.4527,-0.4517,-0.4534,-0.4526,-0.4521,-0.4531,-0.4651,0,0,0,0,0,-0.523,-0.5166,-0.5094,-0.5017,-0.4989,-0.4935,-0.4895,-0.4873,-0.4811,-0.4786,-0.4736,-0.4676,-0.4609,-0.4566,-0.45,-0.4407,-0.439,-0.4369,-0.4363,-0.4359,-0.4351,-0.43,-0.429,-0.4396,-0.4396,-0.4396,0,0,-0.5211,-0.5155,-0.5117,-0.5018,-0.497,-0.4905,-0.4914,-0.4844,-0.4796,-0.4775,-0.4689,-0.465,-0.4581,-0.449,-0.4448,-0.4456,-0.4318,-0.4353,-0.435,-0.4343,-0.4293,-0.4283,-0.4275,-0.4393,-0.4393,-0.4394,0,0,-0.5141,-0.5093,-0.5025,-0.4977,-0.4906,-0.4871,-0.4855,-0.4779,-0.4753,-0.4666,-0.465,-0.4592,-0.4477,-0.4429,-0.4389,-0.4304,-0.4295,-0.4284,-0.4254,-0.4205,-0.4197,-0.4189,-0.4159,-0.4149,-0.4277,-0.4277,-0.4277,0,-0.5126,-0.5027,-0.4991,-0.4922,-0.4879,-0.4859,-0.4789,-0.4745,-0.4655,-0.4626,-0.4637,-0.4494,-0.4446,-0.4344,-0.4324,-0.4292,-0.4273,-0.4293,-0.4201,-0.4193,-0.4185,-0.4156,-0.4145,-0.4276,-0.4276,-0.4276,-0.4276,0,-0.5011,-0.4943,-0.4896,-0.4811,-0.4763,-0.4694,-0.4648,-0.4604,-0.4587,-0.4551,-0.4463,-0.4405,-0.4328,-0.4303,-0.4284,-0.4198,-0.4206,-0.4209,-0.4229,-0.4175,-0.4147,-0.4135,-0.4275,-0.4275,-0.4275,-0.4275,0,0,-0.4941,-0.4839,-0.4822,-0.4784,-0.4705,-0.4651,-0.4582,-0.4507,-0.447,-0.441,-0.4351,-0.4256,-0.4259,-0.4214,-0.4191,-0.4148,-0.4085,-0.4156,-0.4154,-0.4145,-0.3988,-0.3985,-0.3973,-0.4079,-0.4077,-0.4075,-0.3993,0,-0.4863,-0.4739,-0.4705,-0.46,-0.4537,-0.4518,-0.4458,-0.4403,-0.4369,-0.431,-0.4272,-0.4205,-0.4215,-0.4188,-0.4144,-0.4102,-0.4053,-0.4107,-0.4024,-0.4021,-0.4041,-0.3958,-0.3955,-0.3881,-0.3982,-0.398,-0.3979,0,-0.4753,-0.4692,-0.4581,-0.4511,-0.4483,-0.443,-0.4359,-0.4304,-0.4242,-0.422,-0.4171,-0.4152,-0.408,-0.4104,-0.4005,-0.4043,-0.4007,-0.3982,-0.3978,-0.3968,-0.3996,-0.3946,-0.3856,-0.3845,-0.3961,-0.3963,-0.3964,0,-0.4714,-0.4603,-0.4522,-0.449,-0.4407,-0.437,-0.4333,-0.4273,-0.4231,-0.417,-0.4142,-0.4073,-0.4036,-0.3983,-0.3947,-0.3968,-0.3851,-0.3872,-0.3831,-0.3832,-0.3806,-0.3808,-0.3709,-0.3784,-0.3784,-0.3784,-0.3784,0,-0.4629,-0.4561,-0.4503,-0.4454,-0.4378,-0.4341,-0.4268,-0.4231,-0.4178,-0.4121,-0.4101,-0.4048,-0.4003,-0.3945,-0.3916,-0.3839,-0.3822,-0.3802,-0.3795,-0.3804,-0.3806,-0.3779,-0.3783,-0.3781,-0.3782,-0.3782,-0.3783,0,-0.457,-0.4529,-0.444,-0.4369,-0.435,-0.4297,-0.4236,-0.4188,-0.4154,-0.4082,-0.4064,-0.401,-0.394,-0.3899,-0.381,-0.3791,-0.3706,-0.3701,-0.3727,-0.3723,-0.3685,-0.3689,-0.3564,-0.3546,-0.3634,-0.3633,-0.3632,0,-0.4518,-0.4466,-0.439,-0.4351,-0.4314,-0.4251,-0.4209,-0.4171,-0.4127,-0.4054,-0.4015,-0.3944,-0.3885,-0.3775,-0.3728,-0.3661,-0.3655,-0.3616,-0.3644,-0.3655,-0.3654,-0.3658,-0.3653,-0.3611,-0.361,-0.3609,-0.3609,0,-0.4431,-0.4413,-0.4352,-0.4285,-0.4234,-0.4179,-0.4124,-0.4094,-0.4047,-0.3999,-0.3928,-0.3883,-0.3794,-0.3724,-0.3653,-0.3616,-0.3605,-0.36,-0.3587,-0.3595,-0.3612,-0.3602,-0.3713,-0.3603,-0.3604,-0.3604,-0.3604,-0.3604,-0.4374,-0.4327,-0.4267,-0.42,-0.4155,-0.4105,-0.4056,-0.4017,-0.3957,-0.3881,-0.3863,-0.3789,-0.373,-0.3634,-0.3596,-0.3537,-0.3544,-0.3524,-0.352,-0.3515,-0.3515,-0.3622,-0.3524,-0.3524,-0.3524,-0.3524,-0.3525,0,-0.4285,-0.4246,-0.4185,-0.4109,-0.4057,-0.4052,-0.3992,-0.3948,-0.3883,-0.3829,-0.3773,-0.3692,-0.3625,-0.3574,-0.3505,-0.3468,-0.3462,-0.3452,-0.3454,-0.3446,-0.3512,-0.3531,-0.3459,-0.3459,-0.3459,-0.3459,-0.3459,-0.3459,-0.4232,-0.4153,-0.4129,-0.4029,-0.399,-0.3917,-0.3883,-0.3837,-0.3794,-0.3705,-0.3649,-0.3617,-0.3564,-0.3492,-0.3431,-0.3418,-0.3393,-0.3384,-0.3371,-0.3434,-0.3441,-0.3448,-0.3464,-0.338,-0.3379,-0.3308,-0.3308,-0.3307]},{"header":{"parameterUnit":"m.s-1","parameterCategory":1,"la1":30.2991,"la2":30.254,"lo1":-89.0895,"lo2":-89.0444,"dy":0.0017,"dx":0.0017,"nx":28,"ny":28,"refTime":"2023-08-22T21:00:00:Z","depth":0,"parameterNumber":3,"parameterNumberName":"V-component_of_WINDS"},"data":[0,0,0,0,0,0,0,0,0,0,0,0,0,0,0,0,0,0,0,0,0,0,0,0,0,0,0,0,0,0,0,0,0,0,0,0,0,0,0,0,0,0,0,0,0,0,0,0,0,0,0,0,0,0,0,0,0,0,1.2275,1.2274,0,1.2258,1.2258,1.2258,1.2269,1.227,1.227,1.2271,1.2251,1.225,1.2249,0,0,0,0,0,0,0,0,0,0,0,0,0,1.2313,1.2312,1.2275,1.2274,1.2274,1.2258,1.2258,1.2258,1.2269,1.227,1.2271,1.2271,1.2251,1.225,1.2249,0,0,0,0,0,0,0,0,0,0,0,0,0,1.2296,1.2312,1.2275,1.2278,1.2278,1.2258,1.2258,1.2258,1.2269,1.227,1.2271,1.2271,1.2252,1.225,1.2249,1.2223,0,0,1.2244,1.2243,0,0,0,0,0,0,0,0,1.2297,1.2295,1.2278,1.2278,1.2278,1.2267,1.2264,1.2246,1.2269,1.2273,1.2271,1.2272,1.2255,1.2254,1.2249,1.2223,1.2222,1.2244,1.2243,1.2242,1.2242,0,0,0,0,0,0,0,1.2298,1.2295,1.2268,1.2277,1.2278,1.2279,1.2278,1.2261,1.226,1.2272,1.2273,1.2271,1.2256,1.225,1.2248,1.2221,1.2244,1.2243,1.2242,1.2241,1.2171,1.217,0,0,0,0,0,0,1.2299,1.2296,1.2269,1.2268,1.229,1.2278,1.2276,1.2269,1.226,1.2259,1.227,1.2272,1.2252,1.225,1.2248,1.2215,1.2242,1.2241,1.224,1.2172,1.2171,1.217,0,0,0,0,0,0,1.23,1.2297,1.2269,1.2282,1.2279,1.2277,1.2269,1.2269,1.2263,1.2259,1.2258,1.2265,1.2253,1.225,1.2229,1.2215,1.224,1.2239,1.2173,1.2172,1.2171,1.2152,0,0,0,0,0,0,1.2301,1.2297,1.2288,1.2282,1.2278,1.2252,1.2268,1.2268,1.2261,1.2262,1.2254,1.2253,1.2253,1.2231,1.2228,1.2213,1.2238,1.2174,1.2173,1.2171,1.2154,1.215,1.2147,0,0,0,0,0,1.2303,1.2283,1.2288,1.2284,1.2267,1.2251,1.2249,1.225,1.226,1.225,1.2247,1.2253,1.2218,1.2229,1.2225,1.221,1.2175,1.2173,1.2171,1.2155,1.2151,1.2147,0,0,0,0,0,0,1.2287,1.2283,1.2287,1.2266,1.2259,1.2253,1.2241,1.2246,1.2235,1.2237,1.2239,1.2237,1.2215,1.2211,1.2224,1.2184,1.2198,1.2195,1.2187,1.2183,1.2179,1.2179,1.2236,0,0,0,0,0,1.2282,1.227,1.2266,1.2247,1.2244,1.2243,1.2236,1.2238,1.2231,1.2227,1.2223,1.2214,1.2201,1.2192,1.218,1.2154,1.2151,1.2141,1.2138,1.2135,1.2132,1.2115,1.211,1.2163,1.2163,1.2163,0,0,1.2269,1.2265,1.2258,1.2244,1.2239,1.2225,1.224,1.2226,1.2215,1.2225,1.2204,1.2201,1.2191,1.2167,1.2157,1.2163,1.2117,1.2133,1.213,1.2128,1.2113,1.2107,1.2103,1.2162,1.2162,1.2162,0,0,1.2239,1.2236,1.2219,1.2214,1.2206,1.2205,1.2201,1.2195,1.2193,1.2173,1.2179,1.2167,1.2144,1.2137,1.213,1.2097,1.2101,1.2093,1.2074,1.2057,1.2053,1.2049,1.2035,1.203,1.209,1.209,1.209,0,1.2224,1.2205,1.2209,1.2194,1.2187,1.2196,1.2178,1.2172,1.2161,1.2155,1.2163,1.2134,1.2129,1.2102,1.2094,1.2089,1.2082,1.2092,1.2054,1.205,1.2047,1.2032,1.2027,1.2089,1.2089,1.2089,1.2089,0,1.2186,1.2172,1.216,1.2148,1.214,1.2123,1.2124,1.2115,1.2118,1.2116,1.2095,1.2089,1.2074,1.2069,1.2071,1.2041,1.2045,1.2054,1.2067,1.204,1.2027,1.2022,1.2087,1.2087,1.2088,1.2088,0,0,1.2144,1.2136,1.2131,1.2125,1.2117,1.2106,1.2089,1.2076,1.2067,1.2059,1.2043,1.2024,1.2031,1.2024,1.2026,1.2012,1.1982,1.2022,1.2021,1.2012,1.1946,1.1937,1.1931,1.1987,1.1986,1.1985,1.1946,0,1.2112,1.2083,1.2086,1.2058,1.2044,1.2053,1.2038,1.2031,1.2029,1.2016,1.2013,1.1999,1.2011,1.2006,1.1993,1.1989,1.1969,1.1992,1.1969,1.1968,1.1968,1.1925,1.1916,1.188,1.1941,1.194,1.194,0,1.2069,1.206,1.203,1.2023,1.2017,1.2004,1.1991,1.198,1.1971,1.197,1.1962,1.1966,1.1947,1.1963,1.1936,1.1951,1.1942,1.1939,1.1937,1.1933,1.195,1.1916,1.1868,1.1861,1.1932,1.1933,1.1933,0,1.2038,1.2018,1.1997,1.1993,1.1985,1.1974,1.197,1.1963,1.1954,1.1943,1.1937,1.1924,1.1915,1.1904,1.1904,1.1916,1.1875,1.1892,1.1872,1.1872,1.186,1.186,1.1807,1.186,1.186,1.186,1.186,0,1.2,1.1981,1.1983,1.197,1.1948,1.1952,1.193,1.1927,1.192,1.1905,1.1913,1.1898,1.19,1.1885,1.1885,1.1861,1.1858,1.1855,1.1855,1.1853,1.1852,1.1844,1.1846,1.1859,1.1859,1.1859,1.186,0,1.196,1.1962,1.1939,1.1933,1.1931,1.1915,1.191,1.1896,1.1896,1.1876,1.1872,1.187,1.1853,1.1852,1.1832,1.1832,1.1801,1.1806,1.1804,1.1804,1.1782,1.1783,1.1719,1.171,1.1772,1.1771,1.1771,0,1.1934,1.192,1.1913,1.1903,1.1899,1.1884,1.1876,1.1879,1.1869,1.1858,1.1845,1.1829,1.1816,1.1787,1.1783,1.1767,1.1769,1.1748,1.1766,1.1764,1.1765,1.1764,1.1761,1.1743,1.1742,1.1742,1.1741,0,1.1887,1.1888,1.1876,1.1863,1.1852,1.1842,1.1833,1.1825,1.1827,1.1815,1.1798,1.1788,1.1768,1.175,1.1735,1.1729,1.1734,1.1736,1.173,1.1726,1.1724,1.1721,1.1791,1.1737,1.1737,1.1737,1.1738,1.1738,1.1851,1.1838,1.183,1.1815,1.1809,1.18,1.1786,1.1784,1.177,1.1754,1.1757,1.1737,1.1727,1.1707,1.17,1.1683,1.169,1.1682,1.168,1.1677,1.1673,1.173,1.1681,1.1681,1.1681,1.1681,1.1682,0,1.1801,1.1797,1.1783,1.177,1.1758,1.1766,1.1756,1.1745,1.1727,1.1719,1.1706,1.1685,1.1668,1.1662,1.1645,1.1633,1.1634,1.1628,1.1627,1.1625,1.1669,1.1675,1.1627,1.1627,1.1627,1.1627,1.1627,1.1627,1.1773,1.175,1.175,1.1723,1.1719,1.17,1.1693,1.1684,1.1677,1.1653,1.1639,1.1637,1.1628,1.1611,1.1595,1.1593,1.1585,1.1577,1.1576,1.1617,1.1622,1.1627,1.1632,1.1576,1.1576,1.1533,1.1532,1.1532]}]]